Location: Unspecified
(0.0000°N, 0.0000°E)
Time: 16:41:18
(UTC+00:00)

Tiros 1 despin weight - Pass Details

Date: 21 November 2019
Orbit: 594 x 642 km, 48.2° (Epoch: 12 December)

Event Time Altitude Azimuth Distance (km) Brightness Sun altitude
Rises 20:00:11 0° 346° (NNW) 2,875 - -31.3°
Reaches altitude 10° 20:03:00 10° 4° (N) 1,982 - -32.0°
Maximum altitude 20:06:19 20° 51° (NE) 1,461 - -32.7°
Drops below altitude 10° 20:09:41 10° 97° (E) 2,008 - -33.5°
Sets 20:12:33 0° 114° (ESE) 2,925 - -34.1°
